DW2770 Cefalu IT current weather conditions

sailwx.info

Wind from 292 at 3 knots gusting 6

Air temperature 15.0° C
Dewpoint 9.8° C

Last reported at 2017-Mar-29 08:50 UTC.
Time now 2017-Mar-29 09:25 UTC

Location: N 38°02' E 014°02'.
View on Google Maps.

See reports from other nearby stations

  
Tides and Currents Weather Stations Pressure Air Temp Water Temp Dewpoint Dewpoint Depression Visibility Wind Speed Wind Dir Waves Ship Positions
date/time (UTC)wind fromknots sea level pressurealtimeterstation pressurevisibilityair tempwater tempwave heightnotes
2017-Mar-29 08:50 292 3 gusting 6 15.0
2017-Mar-29 08:40 248 4 gusting 7 15.0
2017-Mar-29 08:10 248 3 gusting 6 14.4
2017-Mar-29 07:40 292 0 gusting 5 14.4
2017-Mar-29 07:20 292 1 gusting 2 14.4
2017-Mar-29 07:10 225 1 gusting 2 14.4
2017-Mar-29 07:00 202 1 gusting 2 13.9
2017-Mar-29 06:50 225 2 gusting 2 13.9
2017-Mar-29 06:40 202 13.9
2017-Mar-29 06:30 191 4 gusting 4 13.3
2017-Mar-29 06:00 191 4 gusting 6 12.2
2017-Mar-29 05:50 180 5 gusting 6 12.2
2017-Mar-29 05:30 180 5 gusting 5 11.1
2017-Mar-29 05:20 180 2 gusting 4 11.1
2017-Mar-29 05:10 202 4 gusting 4 11.1
2017-Mar-29 04:40 158 1 gusting 6 11.1
2017-Mar-29 04:30 180 5 gusting 6 11.1
2017-Mar-29 04:20 202 3 gusting 5 11.1
2017-Mar-29 03:40 202 1 gusting 4 11.7
2017-Mar-29 03:30 169 2 gusting 2 11.1
2017-Mar-29 03:20 158 1 gusting 1 11.1
2017-Mar-29 03:10 202 2 gusting 4 11.1
2017-Mar-29 02:50 202 1 gusting 2 11.7
2017-Mar-29 02:30 225 1 gusting 5 11.1
2017-Mar-29 02:20 180 5 gusting 6 11.1
2017-Mar-29 02:10 112 3 gusting 5 11.1
2017-Mar-29 01:50 180 4 gusting 7 11.1
2017-Mar-29 01:10 202 5 gusting 5 11.7
2017-Mar-29 01:00 202 4 gusting 4 11.7
2017-Mar-29 00:50 158 4 gusting 6 11.7
2017-Mar-29 00:40 135 1 gusting 4 11.7
2017-Mar-29 00:30 135 1 gusting 2 11.7
2017-Mar-29 00:10 180 1 gusting 1 11.7
2017-Mar-29 00:00 193 2 gusting 2 11.7
2017-Mar-28 23:50 137 1 gusting 1 12.2
2017-Mar-28 23:20 180 3 gusting 4 12.2
2017-Mar-28 23:10 202 0 gusting 2 12.2
2017-Mar-28 23:00 181 1 gusting 2 12.2
2017-Mar-28 22:50 180 0 gusting 2 12.2
2017-Mar-28 22:20 158 1 gusting 2 12.2
2017-Mar-28 22:10 202 2 gusting 2 12.2
2017-Mar-28 22:00 158 0 gusting 2 12.2
2017-Mar-28 21:50 200 2 gusting 2 12.2
2017-Mar-28 21:40 180 2 gusting 2 12.2
2017-Mar-28 21:30 197 2 gusting 4 12.2
2017-Mar-28 21:20 197 2 gusting 2 12.2
2017-Mar-28 21:10 135 0 gusting 2 12.2
2017-Mar-28 21:00 180 2 gusting 2 12.2
2017-Mar-28 20:30 022 12.2
2017-Mar-28 20:10 090 12.8
2017-Mar-28 20:00 108 12.8
2017-Mar-28 19:40 135 12.8
2017-Mar-28 19:30 189 1 gusting 1 12.8
2017-Mar-28 19:20 223 12.8
2017-Mar-28 19:00 077 12.8
2017-Mar-28 18:40 022 12.2
2017-Mar-28 18:00 022 12.8
2017-Mar-28 17:50 050 12.8
2017-Mar-28 17:40 338 0 gusting 0 12.8
2017-Mar-28 17:30 045 12.8
2017-Mar-28 17:20 065 13.3
2017-Mar-28 17:10 068 0 gusting 1 13.3
2017-Mar-28 16:50 068 2 gusting 2 13.3
2017-Mar-28 16:40 068 1 gusting 2 13.9
2017-Mar-28 16:30 072 2 gusting 5 13.9
2017-Mar-28 16:20 105 2 gusting 5 13.9
2017-Mar-28 16:10 045 2 gusting 5 13.9
2017-Mar-28 16:00 068 1 gusting 6 13.9
2017-Mar-28 15:50 103 3 gusting 4 14.4
2017-Mar-28 15:40 090 14.4
2017-Mar-28 15:30 109 2 gusting 5 14.4
2017-Mar-28 15:20 068 1 gusting 5 13.9
2017-Mar-28 15:10 068 5 gusting 5 13.9
2017-Mar-28 15:00 071 4 gusting 5 13.9
2017-Mar-28 14:50 073 3 gusting 5 13.9
2017-Mar-28 14:40 068 2 gusting 2 13.9
2017-Mar-28 14:30 046 2 gusting 4 14.4
2017-Mar-28 14:10 068 4 gusting 6 13.9
2017-Mar-28 14:00 068 3 gusting 5 13.9
2017-Mar-28 13:40 068 7 gusting 7 14.4
2017-Mar-28 13:30 068 5 gusting 6 13.9
2017-Mar-28 13:20 038 2 gusting 6 13.9
2017-Mar-28 13:00 090 4 gusting 5 14.4
2017-Mar-28 12:40 068 4 gusting 6 13.9
2017-Mar-28 12:10 135 6 gusting 6 13.9
2017-Mar-28 12:00 045 5 gusting 7 13.9
2017-Mar-28 11:50 046 5 gusting 7 13.9
2017-Mar-28 11:40 068 5 gusting 6 13.9
2017-Mar-28 11:30 112 6 gusting 6 13.9
2017-Mar-28 11:20 082 6 gusting 6 13.9
2017-Mar-28 11:10 045 4 gusting 6 13.9
2017-Mar-28 11:00 045 6 gusting 7 13.3
2017-Mar-28 10:50 090 7 gusting 7 13.9
2017-Mar-28 10:30 090 6 gusting 6 13.3
2017-Mar-28 09:50 056 4 gusting 5 13.9
2017-Mar-28 09:40 045 4 gusting 6 13.3
2017-Mar-28 09:20 068 2 gusting 5 13.3
2017-Mar-28 09:10 090 3 gusting 4 13.9
2017-Mar-28 09:00 090 0 gusting 5 13.9
2017-Mar-28 08:40 068 1 gusting 5 13.3
2017-Mar-28 08:30 068 1 gusting 2 13.3
2017-Mar-28 08:20 058 2 gusting 5 13.3
2017-Mar-28 08:10 068 2 gusting 4 12.8
2017-Mar-28 07:40 068 12.8
2017-Mar-28 07:30 090 0 gusting 2 12.8
2017-Mar-28 07:20 068 2 gusting 2 12.8
2017-Mar-28 07:10 068 12.2
2017-Mar-28 07:00 136 1 gusting 1 11.1
2017-Mar-28 06:50 136 1 gusting 1 11.1
2017-Mar-28 06:40 136 1 gusting 1 11.1
2017-Mar-28 06:30 135 1 gusting 2 11.1
2017-Mar-28 06:20 185 2 gusting 2 11.1
2017-Mar-28 06:00 180 2 gusting 4 10.6
2017-Mar-28 05:30 180 1 gusting 4 10.0
2017-Mar-28 05:20 164 1 gusting 2 10.0
2017-Mar-28 05:10 180 1 gusting 4 10.0
2017-Mar-28 05:00 180 2 gusting 5 10.6
2017-Mar-28 04:40 180 0 gusting 1 10.6
2017-Mar-28 04:30 045 10.6
2017-Mar-28 04:20 113 0 gusting 6 11.1
2017-Mar-28 04:10 202 2 gusting 4 11.1
2017-Mar-28 04:00 202 4 gusting 6 11.7
2017-Mar-28 03:50 202 6 gusting 6 11.1
2017-Mar-28 03:20 225 1 gusting 7 11.7
2017-Mar-28 03:10 202 5 gusting 7 11.7
2017-Mar-28 03:00 225 0 gusting 6 11.7
2017-Mar-28 02:50 220 5 gusting 6 11.7
2017-Mar-28 02:40 225 1 gusting 2 11.7
2017-Mar-28 02:30 225 1 gusting 6 11.7
2017-Mar-28 02:20 200 1 gusting 6 11.7
2017-Mar-28 02:10 226 6 gusting 6 11.7
2017-Mar-28 01:30 248 4 gusting 5 11.7
2017-Mar-28 01:10 180 1 gusting 2 11.1
2017-Mar-28 01:00 202 2 gusting 4 11.1
2017-Mar-28 00:50 190 2 gusting 4 11.1
2017-Mar-28 00:40 225 4 gusting 5 11.1
2017-Mar-28 00:30 225 3 gusting 4 10.6
2017-Mar-28 00:20 183 0 gusting 1 10.6
2017-Mar-28 00:10 248 0 gusting 2 10.0
2017-Mar-28 00:00 158 2 gusting 5 10.0
2017-Mar-27 23:50 180 4 gusting 6 10.0
2017-Mar-27 23:40 180 6 gusting 6 10.0
2017-Mar-27 23:30 225 5 gusting 5 10.6
2017-Mar-27 23:00 225 4 gusting 10 12.8
2017-Mar-27 22:50 180 9 gusting 10 13.3
2017-Mar-27 22:40 225 9 gusting 10 13.3
2017-Mar-27 22:30 225 6 gusting 7 13.3
2017-Mar-27 22:10 248 4 gusting 11 13.3
2017-Mar-27 22:00 225 5 gusting 6 13.3
2017-Mar-27 21:50 180 4 gusting 5 13.3
2017-Mar-27 21:40 225 6 gusting 6 13.3
2017-Mar-27 21:30 180 5 gusting 7 13.3
2017-Mar-27 21:20 202 6 gusting 6 13.3
2017-Mar-27 20:50 189 4 gusting 6 13.3
2017-Mar-27 20:40 202 5 gusting 6 13.3
2017-Mar-27 20:30 202 4 gusting 5 13.3
2017-Mar-27 20:10 202 5 gusting 6 13.3
2017-Mar-27 20:00 202 5 gusting 6 13.9
2017-Mar-27 19:40 248 1 gusting 1 14.4
2017-Mar-27 19:30 270 1 gusting 2 14.4
2017-Mar-27 19:20 213 1 gusting 2 14.4
2017-Mar-27 19:10 270 3 gusting 4 14.4
2017-Mar-27 19:00 315 1 gusting 2 14.4
2017-Mar-27 18:30 270 1 gusting 4 14.4
2017-Mar-27 18:20 248 4 gusting 5 14.4
2017-Mar-27 18:10 227 3 gusting 6 14.4
2017-Mar-27 18:00 248 4 gusting 6 14.4
2017-Mar-27 17:50 023 0 gusting 2 14.4
2017-Mar-27 17:30 202 2 gusting 4 14.4
2017-Mar-27 17:20 196 0 gusting 2 14.4
2017-Mar-27 17:10 225 14.4
2017-Mar-27 17:00 225 14.4
2017-Mar-27 16:50 262 1 gusting 1 15.0
2017-Mar-27 16:40 270 0 gusting 1 15.0
2017-Mar-27 16:30 338 14.4
2017-Mar-27 16:00 068 2 gusting 2 15.0
2017-Mar-27 15:50 068 2 gusting 2 15.0
2017-Mar-27 15:40 047 2 gusting 2 15.6
2017-Mar-27 15:10 047 1 gusting 2 15.0
2017-Mar-27 14:40 105 2 gusting 2 15.0
2017-Mar-27 14:30 068 1 gusting 2 14.4
2017-Mar-27 14:20 062 1 gusting 4 15.0
2017-Mar-27 14:10 068 3 gusting 4 14.4
2017-Mar-27 13:50 068 2 gusting 4 14.4
2017-Mar-27 13:40 068 2 gusting 5 15.0
2017-Mar-27 13:30 068 5 gusting 5 15.0
2017-Mar-27 13:20 063 4 gusting 7 15.6
2017-Mar-27 13:10 070 6 gusting 6 15.6
2017-Mar-27 13:00 090 4 gusting 7 15.6
2017-Mar-27 12:50 048 6 gusting 6 16.1
2017-Mar-27 12:40 315 0 gusting 5 16.1
2017-Mar-27 12:20 090 0 gusting 5 16.1
2017-Mar-27 12:10 284 1 gusting 1 16.1
2017-Mar-27 12:00 045 0 gusting 2 16.1
2017-Mar-27 11:50 286 1 gusting 5 16.1
2017-Mar-27 11:40 036 2 gusting 4 15.6
2017-Mar-27 11:30 045 4 gusting 6 15.6
2017-Mar-27 11:20 248 2 gusting 2 15.6
2017-Mar-27 11:10 348 2 gusting 4 15.6
2017-Mar-27 11:00 225 2 gusting 6 15.6
2017-Mar-27 10:50 338 4 gusting 6 15.0
2017-Mar-27 10:40 315 2 gusting 5 15.0
2017-Mar-27 09:40 246 5 gusting 6 15.0
2017-Mar-27 09:20 205 2 gusting 4 14.4
2017-Mar-27 09:10 310 2 gusting 6 14.4
2017-Mar-27 09:00 243 6 gusting 7 14.4